www.pogodaiklimat.ru

Погода и климат >> Архив погоды >> Австралия >> Thargomindah Airport


ПОГОДА в Thargomindah Airport

  • Прогноз погоды в Thargomindah Airport
  • Монитор погоды в Thargomindah Airport
  • Климат города

АРХИВ ПОГОДЫ в Thargomindah Airport

Время (UTC), дата Ветер
(напр.,м/с)
 
Видим.   Явления Облачность Т
(С)
Тd
(С)
f
(%)
Тe
(С)
Тes
(С)
Комфортность P
(гПа)
Po
(гПа)
Тmin
(С)
Tmax
(С)
R
(мм)
S
(см)
08 17.02 0 н/о
09 17.02 З 4 н/о н/о +39.9 -2.4 7 +36 +36 очень
жарко
1005.0 990.2
11 17.02 0 н/о
12 17.02 З 2 н/о н/о +31.7 -3.6 10 +28 +28 жарко 1006.1 991.3
14 17.02 0 н/о
15 17.02 З 2 н/о н/о +27.4 -3.4 13 +25 +25 комфорт 1004.9 990.1
17 17.02 0 н/о
18 17.02 Ю 5 н/о н/о +28.9 +4.4 21 +27 +27 жарко 1004.3 989.5
20 17.02 0 н/о
21 17.02 З 4 н/о н/о +27.2 +8.1 30 +27 +27 жарко 1006.6 991.8
23 17.02 0 н/о
00 18.02 Ю 4 н/о н/о +32.4 +8.0 22 +31 +31 жарко 1007.5 992.6
02 18.02 0 н/о
03 18.02 ЮЗ 6 н/о н/о +36.6 +3.7 13 +34 +34 очень
жарко
1006.6 991.8
05 18.02 0 н/о
06 18.02 ЮЗ 8 н/о н/о +36.5 +5.7 15 +34 +34 очень
жарко
1005.0 990.2
08 18.02 0 н/о
09 18.02 ЮЗ 8 н/о н/о +31.8 +6.8 21 +30 +30 жарко 1006.3 991.5
11 18.02 0 н/о
12 18.02 ЮЗ 9 н/о н/о +28.2 +3.8 21 +27 +27 жарко 1008.8 993.9
14 18.02 0 н/о
15 18.02 Ю 6 н/о н/о +25.2 +3.8 25 +24 +24 комфорт 1009.4 994.5
17 18.02 0 н/о
18 18.02 Ю 6 н/о н/о +22.8 +2.3 26 +22 +22 комфорт 1009.2 994.3
20 18.02 0 н/о
21 18.02 ЮВ 7 н/о н/о +21.0 +2.8 30 +21 +21 комфорт 1011.5 996.6
23 18.02 0 н/о
00 19.02 ЮВ 5 н/о н/о +25.2 +2.0 22 +24 +24 комфорт 1012.3 997.4
02 19.02 0 н/о
03 19.02 Ю 8 н/о н/о +28.7 +0.4 16 +26 +26 жарко 1010.7 995.8
05 19.02 0 н/о
06 19.02 ЮЗ 3 н/о н/о +29.1 -1.1 14 +26 +26 жарко 1009.1 994.2
08 19.02 0 н/о
09 19.02 Ю 6 н/о н/о +27.1 -1.7 15 +25 +25 комфорт 1009.9 995.0
11 19.02 0 н/о
12 19.02 Ю 5 н/о н/о +24.3 -0.1 20 +23 +23 комфорт 1012.3 997.4
14 19.02 0 н/о
15 19.02 Ю 5 н/о н/о +22.1 -1.2 21 +21 +21 комфорт 1013.0 998.1
17 19.02 0 н/о
18 19.02 Ю 3 н/о н/о +19.4 -1.1 25 +20 +20 1012.3 997.4
20 19.02 0 н/о
21 19.02 ЮВ 3 н/о н/о +18.8 +0.4 29 +19 +19 1014.2 999.3
23 19.02 0 н/о
00 20.02 ЮВ 6 н/о н/о +24.2 +1.2 22 +23 +23 комфорт 1015.1 1000.1
02 20.02 0 н/о
03 20.02 В 3 н/о н/о +28.0 -0.1 16 +26 +26 жарко 1013.2 998.3
05 20.02 0 н/о
06 20.02 Ю 4 н/о н/о +30.2 -1.2 13 +27 +27 жарко 1011.2 996.3
08 20.02 0 н/о
09 20.02 Ю 3 н/о н/о +29.2 -1.0 14 +26 +26 жарко 1012.6 997.7
11 20.02 0 н/о
12 20.02 Ю 3 н/о н/о +25.3 -0.7 18 +24 +24 комфорт 1014.2 999.3
14 20.02 0 н/о
15 20.02 Ю 3 н/о н/о +22.6 +1.0 24 +22 +22 комфорт 1014.2 999.3
17 20.02 0 н/о
18 20.02 ЮВ 5 н/о н/о +21.8 +1.5 26 +21 +21 комфорт 1014.5 999.6
20 20.02 0 н/о
21 20.02 ЮВ 4 н/о н/о +20.7 0.0 25 +21 +21 комфорт 1016.2 1001.2
23 20.02 0 н/о
00 21.02 В 5 н/о н/о +28.8 -0.4 15 +26 +26 жарко 1016.9 1001.9
02 21.02 0 н/о
03 21.02 СВ 3 н/о н/о +32.8 -1.5 11 +29 +29 жарко 1014.3 999.4
05 21.02 0 н/о
06 21.02 З 2 н/о н/о +34.9 -2.6 9 +31 +31 жарко 1012.1 997.2
08 21.02 0 н/о
09 21.02 В 2 н/о н/о +33.0 -1.4 11 +29 +29 жарко 1012.3 997.4
11 21.02 0 н/о
12 21.02 В 2 н/о н/о +27.6 -1.3 15 +25 +25 комфорт 1013.8 998.9
14 21.02 0 н/о
15 21.02 СВ 4 н/о н/о +25.0 -2.5 16 +23 +23 комфорт 1012.7 997.8
17 21.02 0 н/о
18 21.02 СВ 3 н/о н/о +23.9 -1.1 19 +23 +23 комфорт 1012.4 997.5
20 21.02 0 н/о
21 21.02 СВ 3 н/о н/о +24.0 -0.3 20 +23 +23 комфорт 1013.8 998.9
23 21.02 0 н/о
00 22.02 СВ 6 н/о н/о +33.5 +1.3 13 +30 +30 жарко 1014.3 999.4
02 22.02 0 н/о
03 22.02 Ю 3 н/о н/о +36.7 +0.1 10 +33 +33 жарко 1012.1 997.2
05 22.02 0 н/о
06 22.02 Ю 3 н/о н/о +38.4 0.0 9 +35 +35 очень
жарко
1010.0 995.1
08 22.02 0 н/о
09 22.02 В 2 н/о н/о +36.5 0.0 10 +33 +33 жарко 1010.4 995.5
11 22.02 0 н/о
12 22.02 В 3 н/о н/о +30.9 +0.3 14 +28 +28 жарко 1012.2 997.3
14 22.02 0 н/о
15 22.02 В 3 н/о н/о +28.0 -0.1 16 +26 +26 жарко 1011.7 996.8
17 22.02 0 н/о
18 22.02 С 2 н/о н/о +26.0 +0.6 19 +24 +24 комфорт 1011.7 996.8
20 22.02 0 н/о
21 22.02 С 2 н/о н/о +25.1 +3.1 24 +24 +24 комфорт 1013.5 998.6
23 22.02 0 н/о
00 23.02 СЗ 4 н/о н/о +36.5 +10.6 21 +36 +36 очень
жарко
1014.9 1000.0
02 23.02 0 н/о
03 23.02 ЮЗ 3 н/о н/о +39.7 +3.7 11 +37 +37 очень
жарко
1013.2 998.3
05 23.02 0 н/о
06 23.02 Ю 4 н/о н/о +40.8 +1.7 9 +37 +37 очень
жарко
1011.4 996.5
09 23.02 ЮВ 3 н/о н/о +39.4 +2.2 10 +36 +36 очень
жарко
1011.9 997.0
12 23.02 ЮВ 2 н/о н/о +33.4 +3.3 15 +31 +31 жарко 1013.2 998.3
15 23.02 Ю 4 н/о н/о +33.7 +7.6 20 +32 +32 жарко 1013.1 998.2
18 23.02 В 3 н/о н/о +30.3 +9.8 28 +30 +30 жарко 1012.9 998.0
21 23.02 ЮВ 2 н/о н/о +28.6 +8.8 29 +28 +28 жарко 1015.4 1000.4
00 24.02 В 3 н/о н/о +34.9 +11.9 25 +35 +35 очень
жарко
1016.1 1001.1
03 24.02 СВ 3 н/о н/о +39.2 +7.8 15 +37 +37 очень
жарко
1013.8 998.9

 

Местоположение метеостанции Thargomindah Airport (Квинсленд, Австралия): широта -27.98 долгота 143.81 высота над уровнем моря 132 м.

В архиве по умолчанию представлена погода в Thargomindah Airport за последнюю неделю. Архивные данные за месяц целиком и за предыдущие месяцы, начиная с января 2011 года, Вы можете получить, выбрав интересующий диапазон дат из раскрывающегося списка и нажав кнопку "Ввод!".

Внимание! Время в таблицах - всемирное. Для получения местного времени необходимо прибавить поправку, которая в Thargomindah Airport равна 10 ч.

Смотрите также архив погоды в соседних городах и на ближайших метеорологических станциях:

Погода в Ballera Gas Field (Квинсленд, Австралия) (206 км)
Погода в Tibooburra Airport (Новый Южный Уэльс, Австралия) (237 км)
Погода в Charleville Aero (Квинсленд, Австралия) (299 км)
Погода в Bourke Airport Aws (Новый Южный Уэльс, Австралия) (309 км)
Погода в White Cliffs Aws (Новый Южный Уэльс, Австралия) (327 км)
Погода в Moomba Airport (Южная Австралия, Австралия) (355 км)
Погода в Wilcannia Aerodrome (Новый Южный Уэльс, Австралия) (396 км)
Погода в Fowlers Gap Aws (Новый Южный Уэльс, Австралия) (401 км)
Погода в Blackall Airport (Квинсленд, Австралия) (428 км)
Погода в Cobar Mo (Новый Южный Уэльс, Австралия) (435 км)

Пояснения к столбцам:

Ветер - указаны скорость ветра в м/с - средняя за 10 мин, порывы в срок и между сроками (в фигурных скобках) и направление, откуда дует ветер: С - северный, СВ - северо-восточный, В - восточный, ЮВ - юго-восточный, Ю - южный, ЮЗ - юго-западный, З - западный, СЗ - северо-западный.
Видимость - горизонтальная дальность видимости в метрах или километрах. При видимости от 1 до 10 км при отсутствии осадков обычно наблюдается дымка, при ухудшении видимости до 1 км и менее - туман. В сухую погоду видимость может ухудшаться дымом, пылью или мглою.
Явления - указаны атмосферные явления, наблюдавшиеся в срок или в последний час перед сроком; фигурными скобками обозначены явления, наблюдавшиеся между сроками (за 1-3 часа до срока); квадратными скобками обозначены град или гололедные отложения с указанием их диаметра в мм.
Облачность - указаны через наклонную черту общая и нижняя облачность в баллах и высота нижней границы облаков в метрах; квадратными скобками обозначены формы облаков: Ci - перистые, Cs - перисто-слоистые, Cc - перисто-кучевые, Ac - высококучевые, As - высокослоистые, Sc - слоисто-кучевые, Ns - слоисто-дождевые, Cu - кучевые, Cb - кучево-дождевые. Подробнее классификацию облаков см. в Атласе облаков (PDF).
T - Температура воздуха - температура, измеренная на высоте 2 м над землей.
Td - Температура точки росы - температура, при понижении до которой содержащийся в воздухе водяной пар достигнет насыщения.
f - Относительная влажность воздуха - влажноcть воздуха, измеренная на высоте 2 м над землей.
Te - Эффективная температура - температура, которую ощущает одетый по сезону человек в тени. Характеристика душности погоды. При расчете учитывается влияние влажности воздуха и скорости ветра на теплоощущения человека.
Tes - Эффективная температура на солнце - температура, которую ощущает человек, с поправкой на солнечный нагрев. Характеристика знойности погоды. Зависит от высоты солнца над горизонтом, облачности и скорости ветра. Ночью, в пасмурную погоду, а также при ветре 12 м/с и более поправка равна нулю.
P - Атмосферное давление - приведенное к уровню моря атмосферное давление.
Po - Атмосферное давление - измеренное на уровне метеостанции атмосферное давление.
Tmin - Минимальная температура - минимум температуры воздуха на высоте 2 м над землей.
Tmax - Максимальная температура - максимум температуры воздуха на высоте 2 м над землей.
R - Количество осадков - Количество выпавших осадков, мм. При наведении курсора мыши на число - период времени, за который выпало указанное количество осадков.
S - Снежный покров - Высота снежного покрова, см. При наведении курсора мыши на число - состояние снежного покрова и степень покрытия местности в баллах.